Location: *
(46.3500°N, 10.9000°E)
Time: 12:44:03
(UTC+00:00)

Cosmos 1356 Rocket - Pass Details

Date: 09 April 2020
Orbit: 542 x 599 km, 81.2° (Epoch: 27 May)

Event Time Altitude Azimuth Distance (km) Brightness Sun altitude
Exits shadow 20:13:51 40° 57° (ENE) 888 4.2 -22.0°
Drops below altitude 10° 20:17:00 10° 22° (NNE) 1,922 6.3 -22.4°
Sets 20:19:15 0° 17° (NNE) 2,819 7.3 -22.7°
